| time (UTC) | temp F | wind direction | speed knots | gust knots | rain 1hr in | rain 24hr in | rain mn in | humidity % | barometer mb |
| 20260906221015 | 98 | 113 | 6.1 | 9.6 | 0.00 | 0.00 | 0.00 | 41 | 1010.3 |
| 20260906220015 | 98 | 158 | 7.0 | 12.2 | 0.00 | 0.00 | 0.00 | 42 | 1010.3 |
| 20260906215015 | 98 | 113 | 8.7 | 12.2 | 0.00 | 0.00 | 0.00 | 42 | 1010.4 |
| 20260906214015 | 99 | 113 | 7.8 | 13.0 | 0.00 | 0.00 | 0.00 | 42 | 1010.6 |
| 20260906213015 | 99 | 135 | 7.0 | 13.0 | 0.00 | 0.00 | 0.00 | 42 | 1010.8 |
| 20260906212015 | 99 | 113 | 7.0 | 13.9 | 0.00 | 0.00 | 0.00 | 42 | 1010.8 |
| 20260906211015 | 99 | 158 | 7.0 | 10.4 | 0.00 | 0.00 | 0.00 | 42 | 1011.0 |
| 20260906210015 | 99 | 135 | 8.7 | 13.9 | 0.00 | 0.00 | 0.00 | 43 | 1011.2 |
| 20260906205017 | 99 | 113 | 5.2 | 9.6 | 0.00 | 0.00 | 0.00 | 42 | 1011.4 |
| 20260906204037 | 98 | 135 | 6.1 | 10.4 | 0.00 | 0.00 | 0.00 | 43 | 1011.5 |
| 20260906203057 | 99 | 113 | 8.7 | 13.9 | 0.00 | 0.00 | 0.00 | 43 | 1011.7 |
| 20260906202017 | 99 | 135 | 5.2 | 12.2 | 0.00 | 0.00 | 0.00 | 43 | 1011.7 |
| 20260906201037 | 99 | 135 | 7.0 | 10.4 | 0.00 | 0.00 | 0.00 | 43 | 1011.8 |
| 20260906200017 | 99 | 135 | 9.6 | 14.8 | 0.00 | 0.00 | 0.00 | 43 | 1011.9 |
| 20260906195037 | 99 | 113 | 8.7 | 13.0 | 0.00 | 0.00 | 0.00 | 43 | 1012.1 |
| 20260906194017 | 99 | 158 | 7.0 | 15.6 | 0.00 | 0.00 | 0.00 | 43 | 1012.1 |
| 20260906193017 | 99 | 113 | 9.6 | 14.8 | 0.00 | 0.00 | 0.00 | 41 | 1012.2 |
| 20260906192017 | 99 | 113 | 9.6 | 17.4 | 0.00 | 0.00 | 0.00 | 41 | 1012.2 |
| 20260906191017 | 99 | 113 | 11.3 | 18.2 | 0.00 | 0.00 | 0.00 | 41 | 1012.3 |
| 20260906190017 | 98 | 90 | 9.6 | 14.8 | 0.00 | 0.00 | 0.00 | 40 | 1012.3 |
| 20260906185017 | 98 | 113 | 8.7 | 13.0 | 0.00 | 0.00 | 0.00 | 43 | 1012.4 |
| 20260906184057 | 98 | 135 | 9.6 | 17.4 | 0.00 | 0.00 | 0.00 | 44 | 1012.5 |
| 20260906183037 | 98 | 135 | 9.6 | 14.8 | 0.00 | 0.00 | 0.00 | 44 | 1012.5 |
| 20260906182016 | 98 | 158 | 7.8 | 12.2 | 0.00 | 0.00 | 0.00 | 45 | 1012.7 |
| 20260906181017 | 98 | 113 | 8.7 | 13.9 | 0.00 | 0.00 | 0.00 | 45 | 1012.9 |
| 20260906180017 | 98 | 113 | 7.0 | 13.0 | 0.00 | 0.00 | 0.00 | 46 | 1013.1 |
| 20260906175016 | 97 | 113 | 8.7 | 13.9 | 0.00 | 0.00 | 0.00 | 46 | 1013.3 |
| 20260906174057 | 97 | 113 | 7.8 | 13.0 | 0.00 | 0.00 | 0.00 | 46 | 1013.6 |
| 20260906173037 | 97 | 113 | 8.7 | 15.6 | 0.00 | 0.00 | 0.00 | 47 | 1013.6 |
| 20260906172017 | 97 | 135 | 8.7 | 13.9 | 0.00 | 0.00 | 0.00 | 48 | 1013.6 |
| 20260906171036 | 97 | 135 | 7.0 | 12.2 | 0.00 | 0.00 | 0.00 | 49 | 1013.8 |
| 20260906170016 | 96 | 158 | 5.2 | 8.7 | 0.00 | 0.00 | 0.00 | 51 | 1013.9 |
| 20260906165016 | 95 | 90 | 6.1 | 13.0 | 0.00 | 0.00 | 0.00 | 51 | 1013.9 |
| 20260906164016 | 95 | 135 | 7.8 | 11.3 | 0.00 | 0.00 | 0.00 | 50 | 1014.0 |
| 20260906163016 | 96 | 113 | 6.1 | 12.2 | 0.00 | 0.00 | 0.00 | 50 | 1014.0 |
| 20260906162016 | 95 | 135 | 4.3 | 10.4 | 0.00 | 0.00 | 0.00 | 52 | 1014.1 |
| 20260906161016 | 94 | 113 | 4.3 | 8.7 | 0.00 | 0.00 | 0.00 | 53 | 1014.0 |
| 20260906160016 | 94 | 135 | 3.5 | 7.0 | 0.00 | 0.00 | 0.00 | 55 | 1014.0 |
| 20260906155036 | 93 | 135 | 3.5 | 7.8 | 0.00 | 0.00 | 0.00 | 54 | 1014.1 |
| 20260906154016 | 94 | 158 | 2.6 | 7.8 | 0.00 | 0.00 | 0.00 | 55 | 1014.0 |
| 20260906153016 | 93 | 68 | 1.7 | 4.3 | 0.00 | 0.00 | 0.00 | 58 | 1014.0 |
| 20260906152016 | 91 | 158 | 3.5 | 5.2 | 0.00 | 0.00 | 0.00 | 58 | 1013.9 |
| 20260906151036 | 91 | 90 | 0.9 | 2.6 | 0.00 | 0.00 | 0.00 | 61 | 1013.7 |
| 20260906150016 | 90 | 158 | 0.9 | 2.6 | 0.00 | 0.00 | 0.00 | 64 | 1013.7 |
| 20260906145016 | 89 | 90 | 1.7 | 5.2 | 0.00 | 0.00 | 0.00 | 64 | 1013.6 |
| 20260906144016 | 88 | 158 | 1.7 | 4.3 | 0.00 | 0.00 | 0.00 | 67 | 1013.7 |
| 20260906143016 | 86 | 135 | 1.7 | 3.5 | 0.00 | 0.00 | 0.00 | 69 | 1013.6 |
| 20260906142016 | 85 | 135 | 2.6 | 4.3 | 0.00 | 0.00 | 0.00 | 71 | 1013.6 |
| 20260906141016 | 85 | 135 | 4.3 | 7.0 | 0.00 | 0.00 | 0.00 | 72 | 1013.6 |
| 20260906140016 | 84 | 158 | 3.5 | 6.1 | 0.00 | 0.00 | 0.00 | 74 | 1013.6 |
| 20260906135016 | 83 | 158 | 3.5 | 6.1 | 0.00 | 0.00 | 0.00 | 76 | 1013.6 |
| 20260906134016 | 82 | 135 | 2.6 | 4.3 | 0.00 | 0.00 | 0.00 | 77 | 1013.6 |
| 20260906133016 | 81 | 135 | 2.6 | 5.2 | 0.00 | 0.00 | 0.00 | 78 | 1013.6 |
| 20260906132036 | 80 | 113 | 1.7 | 3.5 | 0.00 | 0.00 | 0.00 | 80 | 1013.6 |
| 20260906131016 | 79 | 0.0 | 0.0 | 0.00 | 0.00 | 0.00 | 82 | 1013.7 | |
| 20260906130035 | 78 | 0.0 | 0.0 | 0.00 | 0.00 | 0.00 | 84 | 1013.5 | |
| 20260906125016 | 77 | 0.0 | 0.9 | 0.00 | 0.00 | 0.00 | 85 | 1013.4 | |
| 20260906124015 | 76 | 135 | 0.9 | 1.7 | 0.00 | 0.00 | 0.00 | 85 | 1013.4 |
| 20260906123015 | 76 | 135 | 0.9 | 1.7 | 0.00 | 0.00 | 0.00 | 85 | 1013.2 |
| 20260906122016 | 75 | 135 | 0.9 | 1.7 | 0.00 | 0.00 | 0.00 | 85 | 1013.1 |
| 20260906121036 | 75 | 0.0 | 0.0 | 0.00 | 0.00 | 0.00 | 85 | 1012.9 | |
| 20260906120015 | 75 | 135 | 0.9 | 1.7 | 0.00 | 0.00 | 0.00 | 85 | 1012.8 |
| 20260906115015 | 75 | 135 | 0.9 | 1.7 | 0.00 | 0.00 | 0.00 | 86 | 1012.8 |
| 20260906114036 | 75 | 135 | 1.7 | 1.7 | 0.00 | 0.00 | 0.00 | 86 | 1012.8 |
| 20260906113015 | 75 | 135 | 0.9 | 1.7 | 0.00 | 0.00 | 0.00 | 86 | 1012.9 |
| 20260906112035 | 75 | 135 | 0.9 | 1.7 | 0.00 | 0.00 | 0.00 | 85 | 1012.8 |
| 20260906111017 | 75 | 135 | 0.9 | 1.7 | 0.00 | 0.00 | 0.00 | 85 | 1012.6 |
| 20260906110037 | 75 | 135 | 0.9 | 1.7 | 0.00 | 0.00 | 0.00 | 84 | 1012.5 |
| 20260906105057 | 76 | 0.0 | 0.0 | 0.00 | 0.00 | 0.00 | 84 | 1012.4 | |
| 20260906104017 | 76 | 0.0 | 0.0 | 0.00 | 0.00 | 0.00 | 84 | 1012.5 | |
| 20260906103017 | 76 | 0.0 | 0.0 | 0.00 | 0.00 | 0.00 | 85 | 1012.5 | |
| 20260906102017 | 75 | 135 | 0.9 | 1.7 | 0.00 | 0.00 | 0.00 | 84 | 1012.4 |
| 20260906101017 | 75 | 135 | 0.9 | 1.7 | 0.00 | 0.00 | 0.00 | 84 | 1012.3 |
| 20260906100017 | 76 | 135 | 0.9 | 1.7 | 0.00 | 0.00 | 0.00 | 83 | 1012.3 |
| 20260906095017 | 76 | 0.0 | 1.7 | 0.00 | 0.00 | 0.00 | 83 | 1012.3 | |
| 20260906094017 | 76 | 0.0 | 1.7 | 0.00 | 0.00 | 0.00 | 82 | 1012.2 | |
| 20260906093037 | 77 | 0.0 | 0.0 | 0.00 | 0.00 | 0.00 | 81 | 1012.2 | |
| 20260906092017 | 77 | 0.0 | 0.0 | 0.00 | 0.00 | 0.00 | 81 | 1012.2 | |
| 20260906091017 | 78 | 0.0 | 0.0 | 0.00 | 0.00 | 0.00 | 80 | 1012.1 | |
| 20260906090057 | 78 | 0.0 | 0.0 | 0.00 | 0.00 | 0.00 | 80 | 1012.1 | |
| 20260906085017 | 78 | 0.0 | 0.0 | 0.00 | 0.00 | 0.00 | 79 | 1012.1 | |
| 20260906084037 | 78 | 0.0 | 0.9 | 0.00 | 0.00 | 0.00 | 79 | 1011.9 | |
| 20260906083016 | 79 | 0.0 | 0.0 | 0.00 | 0.00 | 0.00 | 78 | 1012.0 | |
| 20260906082016 | 79 | 0.0 | 0.9 | 0.00 | 0.00 | 0.00 | 79 | 1011.9 | |
| 20260906081017 | 79 | 0.0 | 0.0 | 0.00 | 0.00 | 0.00 | 78 | 1011.9 | |
| 20260906080056 | 79 | 135 | 0.9 | 1.7 | 0.00 | 0.00 | 0.00 | 78 | 1012.0 |
| 20260906075036 | 79 | 0.0 | 2.6 | 0.00 | 0.00 | 0.00 | 78 | 1011.7 | |
| 20260906074016 | 79 | 0.0 | 0.0 | 0.00 | 0.00 | 0.00 | 76 | 1011.8 | |
| 20260906073017 | 79 | 0.0 | 0.9 | 0.00 | 0.00 | 0.00 | 75 | 1012.0 | |
| 20260906072016 | 80 | 0.0 | 0.0 | 0.00 | 0.00 | 0.00 | 75 | 1012.1 | |
| 20260906071016 | 80 | 135 | 0.9 | 1.7 | 0.00 | 0.00 | 0.00 | 75 | 1012.2 |
| 20260906070016 | 80 | 135 | 0.9 | 0.9 | 0.00 | 0.00 | 0.00 | 75 | 1012.1 |
| 20260906065016 | 80 | 0.0 | 1.7 | 0.00 | 0.00 | 0.00 | 74 | 1012.0 | |
| 20260906064036 | 80 | 0.0 | 0.0 | 0.00 | 0.00 | 0.00 | 74 | 1012.2 | |
| 20260906063036 | 80 | 0.0 | 0.0 | 0.00 | 0.00 | 0.00 | 73 | 1012.2 | |
| 20260906062016 | 80 | 0.0 | 0.9 | 0.00 | 0.00 | 0.00 | 73 | 1012.3 | |
| 20260906061016 | 80 | 0.0 | 0.0 | 0.00 | 0.00 | 0.00 | 73 | 1012.3 | |
| 20260906060016 | 81 | 0.0 | 0.9 | 0.00 | 0.00 | 0.00 | 72 | 1012.3 | |
| 20260906055016 | 81 | 0.0 | 1.7 | 0.00 | 0.00 | 0.00 | 71 | 1012.2 | |
| 20260906054016 | 82 | 0.0 | 0.0 | 0.00 | 0.00 | 0.00 | 70 | 1012.1 | |
| 20260906053016 | 82 | 0.0 | 0.0 | 0.00 | 0.00 | 0.00 | 69 | 1012.2 | |
| 20260906052016 | 83 | 135 | 0.9 | 1.7 | 0.00 | 0.00 | 0.00 | 69 | 1012.3 |
| 20260906051016 | 83 | 135 | 0.9 | 1.7 | 0.00 | 0.00 | 0.00 | 69 | 1012.3 |
| 20260906050015 | 83 | 135 | 0.9 | 1.7 | 0.00 | 0.00 | 0.00 | 69 | 1012.3 |
| 20260906045017 | 83 | 0.0 | 1.7 | 0.00 | 0.00 | 0.00 | 68 | 1012.3 | |
| 20260906044016 | 84 | 0.0 | 0.9 | 0.00 | 0.00 | 0.00 | 67 | 1012.3 | |
| 20260906043037 | 84 | 0.0 | 0.0 | 0.00 | 0.00 | 0.00 | 66 | 1012.3 | |
| 20260906042036 | 85 | 0.0 | 0.9 | 0.00 | 0.00 | 0.00 | 65 | 1012.3 | |
| 20260906041016 | 85 | 135 | 0.9 | 2.6 | 0.00 | 0.00 | 0.00 | 64 | 1012.3 |
| 20260906040036 | 86 | 135 | 0.9 | 2.6 | 0.00 | 0.00 | 0.00 | 63 | 1012.3 |
| 20260906035017 | 86 | 135 | 1.7 | 3.5 | 0.00 | 0.00 | 0.00 | 62 | 1012.3 |
| 20260906034016 | 87 | 135 | 2.6 | 4.3 | 0.00 | 0.00 | 0.00 | 61 | 1012.3 |
| 20260906033016 | 87 | 135 | 2.6 | 3.5 | 0.00 | 0.00 | 0.00 | 60 | 1012.1 |
| 20260906032056 | 87 | 158 | 3.5 | 7.8 | 0.00 | 0.00 | 0.00 | 60 | 1012.0 |
| 20260906031016 | 87 | 135 | 3.5 | 7.0 | 0.00 | 0.00 | 0.00 | 59 | 1011.9 |
| 20260906030016 | 87 | 135 | 3.5 | 7.0 | 0.00 | 0.00 | 0.00 | 58 | 1011.7 |
| 20260906025016 | 86 | 158 | 0.9 | 7.8 | 0.00 | 0.00 | 0.00 | 57 | 1011.6 |
| 20260906024016 | 86 | 0.0 | 0.0 | 0.00 | 0.00 | 0.00 | 57 | 1011.5 | |
| 20260906023036 | 86 | 0.0 | 0.0 | 0.00 | 0.00 | 0.00 | 57 | 1011.2 | |
| 20260906022036 | 86 | 0.0 | 0.0 | 0.00 | 0.00 | 0.00 | 57 | 1011.0 | |
| 20260906021016 | 87 | 0.0 | 0.9 | 0.00 | 0.00 | 0.00 | 55 | 1010.9 | |
| 20260906020016 | 88 | 90 | 0.9 | 2.6 | 0.00 | 0.00 | 0.00 | 55 | 1010.8 |
| 20260906015016 | 88 | 90 | 1.7 | 3.5 | 0.00 | 0.00 | 0.00 | 54 | 1010.7 |
| 20260906014016 | 89 | 90 | 2.6 | 3.5 | 0.00 | 0.00 | 0.00 | 53 | 1010.6 |
| 20260906013036 | 89 | 90 | 2.6 | 5.2 | 0.00 | 0.00 | 0.00 | 52 | 1010.4 |
| 20260906012016 | 90 | 90 | 2.6 | 3.5 | 0.00 | 0.00 | 0.00 | 51 | 1010.3 |
| 20260906011016 | 91 | 90 | 2.6 | 3.5 | 0.00 | 0.00 | 0.00 | 50 | 1010.3 |
| 20260906010016 | 91 | 90 | 2.6 | 3.5 | 0.00 | 0.00 | 0.00 | 49 | 1010.1 |
| 20260906005016 | 92 | 113 | 1.7 | 3.5 | 0.00 | 0.00 | 0.00 | 47 | 1010.2 |
| 20260906004016 | 93 | 113 | 2.6 | 5.2 | 0.00 | 0.00 | 0.00 | 46 | 1010.1 |
| 20260906003036 | 94 | 113 | 4.3 | 8.7 | 0.00 | 0.00 | 0.00 | 45 | 1010.0 |
| 20260906002016 | 95 | 113 | 3.5 | 5.2 | 0.00 | 0.00 | 0.00 | 45 | 1010.1 |
| 20260906001036 | 96 | 113 | 3.5 | 6.1 | 0.00 | 0.00 | 0.00 | 44 | 1010.1 |
| 20260906000016 | 96 | 135 | 3.5 | 7.0 | 0.00 | 0.00 | 0.00 | 44 | 1010.0 |
| 20260905235036 | 96 | 135 | 4.3 | 7.8 | 0.00 | 0.00 | 0.00 | 44 | 1009.9 |
| 20260905234015 | 97 | 135 | 4.3 | 8.7 | 0.00 | 0.00 | 0.00 | 44 | 1009.9 |
| 20260905233015 | 97 | 135 | 4.3 | 7.8 | 0.00 | 0.00 | 0.00 | 43 | 1009.9 |
| 20260905232015 | 97 | 90 | 6.1 | 8.7 | 0.00 | 0.00 | 0.00 | 43 | 1009.9 |
| 20260905231015 | 98 | 90 | 5.2 | 10.4 | 0.00 | 0.00 | 0.00 | 42 | 1010.0 |
| 20260905230015 | 98 | 90 | 5.2 | 9.6 | 0.00 | 0.00 | 0.00 | 42 | 1009.9 |
| 20260905225016 | 98 | 90 | 3.5 | 6.1 | 0.00 | 0.00 | 0.00 | 43 | 1009.9 |
| 20260905224015 | 98 | 90 | 4.3 | 8.7 | 0.00 | 0.00 | 0.00 | 43 | 1009.9 |
| 20260905223016 | 98 | 113 | 5.2 | 9.6 | 0.00 | 0.00 | 0.00 | 43 | 1010.1 |
| 20260905222015 | 97 | 113 | 5.2 | 9.6 | 0.00 | 0.00 | 0.00 | 44 | 1010.1 |